Location: Waning Moon II Observatory
(30.3730°N, 89.7620°W)
Time: 08:32:01
(UTC-06:00)

Cosmos 1825 Rocket - Visible Passes

Search period start: 05 March 2015 00:00
Search period end: 15 March 2015 01:00
Orbit: 606 x 631 km, 82.5° (Epoch: 04 March)

Date Brightness Start Highest point End Pass type
(mag) Time Alt. Az. Time Alt. Az. Time Alt. Az.
05 Mar 5.6 18:35:13 10° NNW 18:39:11 33° W 18:43:03 10° SSW visible
06 Mar 7.3 05:25:13 10° ESE 05:26:43 12° E 05:28:30 10° ENE visible
06 Mar 6.9 18:53:25 10° NW 18:56:17 17° W 18:58:57 10° SW visible
07 Mar 6.4 05:40:19 10° SE 05:43:49 24° E 05:47:26 10° NE visible
10 Mar 7.1 05:56:07 10° ESE 05:57:50 12° E 05:59:51 10° ENE visible
10 Mar 7.0 19:24:40 10° NW 19:27:24 16° W 19:29:55 10° SW visible
11 Mar 6.2 06:11:22 10° SE 06:14:56 25° E 06:18:38 10° NE visible
12 Mar 4.7 06:27:46 10° SSE 06:32:05 50° E 06:36:24 10° NNE visible
13 Mar 3.6 06:44:48 10° S 06:49:15 77° W 06:53:43 10° N visible
14 Mar 6.9 05:27:00 10° ESE 05:28:57 13° E 05:31:09 10° ENE visible
